SL-8 R/B, 22676

Orbit data source: Space-Track

SL-8 R/B, 22676 is space debris in LEO originally from a launch on Wed, 16 Jun 1993 UTC launched from the Plesetsk Missile And Space Complex (PKMTR). Debris objects in space refer to the collection of defunct objects orbiting the Earth. Examples of debris include non-operational satellites, rocket bodies, and fragments generated from explosions, collisions, or faulty payload assembly.

Loading next visibility...
Identifier
22676, 1993-036B
Orbit
LEO
Country
Flag of CISCIS
Related business
Manufacturer
Polyot
Mission
Spacecraft
Bus & Motor
S3, Unknown motor
Mass
1,434 kg wet, 1,434 kg dry
Launch date (UTC)
1993-06-16 (33 years ago)
Launch vehicle
Unknown
Launch site
Plesetsk Missile And Space Complex (PKMTR)
Object type
Payload
Rocket body
Debris
Shape & HBR
Cyl, 3.3 m
Radar Cross Section
14.646 m², Large (>1 m²)

Expand to show TLE details & history
Last TLE update: 4 hours ago

TLE from 4 hours ago
0 SL-8 R/B
1 22676U 93036B   26168.50068171  .00000134  00000-0  55696-4 0  9998
2 22676  74.0425 285.9848 0018948 230.6724 129.2750 14.35306439726341
Epoch: 2026-06-17T12:00Z
TLE epoch observation values (Epoch: 2026-06-17T12:00:58.899Z)
Latitude
-0°
Longitude
-160.01808°
Altitude
785.255 km
Speed
7.457 km/s
True Right ascension
19h 03m 56s
True Declination
0° 00' 00"
Sunlit
Object was in full shadow at epoch
Visualization orbit readout
Latitude
Unknown
Longitude
Unknown
Altitude
Unknown
Speed
Unknown
Apparent Right ascension
Unknown
Apparent Declination
Unknown
Sunlit
N/A
Visualization observer readout
Local Sidereal Time
02:54:06
Azimuth
Unknown
Elevation
Unknown
Doppler factor
Unknown
Orbital elements
Apogee altitude
785.22 km
Perigee altitude
758.125 km
Semi-major axis
7,149.809 km
Eccentricity
0.00189
Inclination
74.0425°
RAAN
285.9848°
Arg. of periapsis
230.6724°
True anomaly
129.44283°
Mean anomaly
129.275°
Eccentric anomaly
129.35894°
Mean motion
3.59006 °/min
Orbital period
100.28 mins
BSTAR
0.000055696

Documentation

Showing up to 5 results
|